Temp
62 62 59 60 50 45 41 49 50 54 54 58 59 59 59 55 57 51 62 67 68 68 70 71 73 74 73 72 72 71 71 71 71 71 70 70 70 69 69 69 69 70 70 70 70 70 70 69 68
60 65 60 51 44 37 42 47 53 56 59 59 61 57 56 52 59 60 62 67 69 69 68 70 71 73 72 72 71 71 71 71 70 70 70 69 69 68 68 68 68 68 69 69 69 69 69 68 68
62 62 56 47 38 39 43 50 53 57 60 58 56 58 54 55 58 61 65 68 68 66 67 68 71 72 72 71 71 71 70 70 70 69 69 68 68 68 67 67 67 67 68 68 68 68 68 67 67
60 58 52 44 40 47 47 53 54 58 57 60 57 54 56 61 62 63 67 67 65 64 66 68 71 72 71 71 70 70 70 69 69 68 68 68 67 67 67 67 67 67 67 67 67 67 67 66 66
54 51 44 38 42 49 51 55 53 55 55 56 57 53 54 60 63 65 65 66 64 63 64 67 70 71 71 70 70 70 69 68 68 68 67 67 67 66 66 66 66 66 66 67 67 67 67 66 66
51 48 40 36 41 50 53 55 54 53 54 56 55 53 54 59 62 62 64 63 65 63 64 66 67 68 69 70 69 69 68 67 67 67 67 66 66 66 65 66 66 67 67 67 67 67 67 66 66
49 44 39 35 41 47 52 55 53 52 54 55 59 52 53 58 61 61 62 62 63 63 63 63 67 65 65 67 67 67 67 66 66 66 65 64 64 64 64 63 65 66 67 67 66 66 66 65 65
48 46 38 39 41 47 52 54 54 54 54 59 57 52 51 59 61 60 60 60 61 61 61 61 63 60 59 59 63 63 64 65 64 64 63 62 61 62 62 61 63 65 65 66 66 66 65 64 63
48 42 38 41 44 48 53 52 55 56 54 54 54 55 56 61 59 58 56 57 57 59 59 58 57 57 57 57 58 60 62 62 61 59 60 56 52 53 54 58 62 63 63 64 64 64 62 61 59
46 40 44 48 46 46 51 49 50 53 51 51 51 54 57 59 59 57 56 55 56 56 56 57 56 55 55 61 54 53 56 53 53 52 52 52 51 52 54 54 58 59 59 61 62 61 59 56 51
43 42 47 50 51 50 50 51 49 47 51 56 55 55 55 56 57 57 57 57 57 57 57 56 56 54 54 54 50 50 50 49 50 50 50 50 51 49 49 49 49 50 53 51 53 52 52 52 52
42 48 49 52 52 50 49 51 51 50 54 56 53 57 57 56 56 57 56 56 56 56 57 56 56 55 53 51 50 50 50 49 48 49 50 49 48 48 49 49 49 49 49 50 50 50 52 52 54
45 47 50 51 50 50 52 51 50 51 56 57 55 56 56 58 57 57 58 58 57 56 57 56 55 54 54 52 50 49 49 49 49 49 50 49 48 48 49 49 49 49 50 49 50 50 51 56 55
49 49 49 49 50 49 49 46 49 52 52 53 53 53 55 57 57 56 56 57 57 58 58 57 56 55 54 51 50 49 49 49 49 48 49 50 49 48 49 49 49 49 50 50 50 50 50 53 52
48 43 46 49 49 50 49 45 45 54 53 53 52 51 52 55 56 57 59 58 59 59 58 56 55 54 54 52 51 50 50 50 48 48 50 51 50 49 49 49 49 49 51 51 51 52 51 51 52
43 41 36 45 46 49 50 41 52 49 49 51 51 49 51 52 55 57 59 59 59 59 57 57 59 54 53 52 51 50 49 48 48 48 49 51 52 51 49 49 49 50 52 51 51 50 50 51 52
36 32 34 42 46 45 44 42 50 47 47 50 50 50 52 52 53 55 57 58 58 59 58 56 55 54 52 52 50 50 49 48 47 47 49 50 51 52 50 49 49 51 51 51 51 50 49 48 49
34 33 35 37 42 42 39 42 47 49 49 49 50 52 51 53 55 56 56 59 59 59 59 57 56 54 52 51 48 48 48 47 47 48 49 50 50 51 50 50 50 51 51 51 50 50 50 48 48
39 35 35 38 43 41 40 42 48 49 44 46 51 55 53 54 56 56 57 58 58 58 57 57 55 53 52 50 46 45 45 46 47 47 50 50 50 51 50 49 50 50 51 51 51 50 49 49 48
40 37 36 40 42 41 39 41 47 46 49 52 54 55 56 56 54 56 54 55 57 57 57 56 56 53 53 53 47 48 47 47 47 47 48 49 50 51 51 50 50 50 51 51 50 50 49 49 48
38 37 37 39 39 39 37 36 43 46 46 52 51 56 58 58 57 54 51 55 56 56 56 56 55 54 54 52 49 47 47 46 45 45 46 49 50 51 51 51 50 50 51 50 50 50 49 47 49
36 41 42 40 37 31 35 28 37 44 45 47 51 48 51 53 52 54 51 52 55 56 56 56 54 54 52 52 51 50 49 46 47 46 47 48 50 51 51 51 50 50 51 51 50 52 50 49 47
42 43 42 40 35 33 32 29 35 38 42 49 56 53 50 51 49 52 52 54 55 56 55 55 54 53 52 52 52 50 47 47 46 46 46 47 48 50 50 50 50 50 51 52 52 51 50 50 49
45 41 39 34 32 20 33 34 32 40 47 50 52 50 52 50 47 49 51 53 54 54 54 52 52 51 51 51 50 50 49 47 44 44 44 45 46 47 49 50 50 50 51 52 52 52 50 50 50
40 37 19 19 15 22 31 31 42 46 49 49 52 52 51 49 46 46 48 51 52 52 52 51 51 49 50 50 50 49 48 47 46 45 45 44 44 45 48 49 49 49 51 53 53 52 51 50 49
34 37 25 19 18 26 31 29 37 47 54 49 50 50 50 47 46 45 47 51 51 52 51 52 51 49 50 50 49 48 47 47 45 45 44 45 45 47 48 49 49 50 52 53 53 52 50 49 48
34 34 38 25 16 23 29 33 42 47 47 47 47 47 50 49 45 44 45 48 51 51 51 51 50 49 49 49 48 46 46 45 45 45 46 46 47 48 48 49 49 50 53 53 53 52 51 49 48
41 43 32 25 15 17 25 28 36 42 47 47 48 48 48 45 43 42 43 44 48 50 50 50 50 48 48 48 48 47 46 46 46 46 46 46 47 48 48 48 49 50 53 53 52 51 53 50 48
33 36 34 34 29 22 17 29 39 49 51 50 49 48 49 48 45 43 42 43 44 45 47 48 48 47 47 47 47 45 45 46 46 46 46 46 46 47 48 48 49 49 50 52 52 52 54 50 49
38 36 34 31 24 23 25 29 44 46 46 48 48 50 47 46 46 43 42 43 43 44 45 45 46 46 47 47 47 47 46 46 45 45 46 46 46 47 47 48 49 49 50 52 53 51 52 52 49
MSLP
1013.03 1012.92 1012.98 1013.35 1015.15 1015.72 1014.85 1013.09 1011.69 1010.74 1010.41 1010.12 1010.17 1010.46 1010.98 1011.78 1012.30 1013.76 1013.37 1013.43 1013.58 1014.03 1014.25 1014.57 1014.80 1015.13 1015.46 1015.97 1016.33 1016.53 1016.67 1016.79 1016.86 1016.92 1016.97 1016.95 1016.91 1016.87 1016.80 1016.71 1016.53 1016.31 1016.10 1015.97 1015.86 1015.83 1015.77 1015.68 1015.58
1013.05 1012.93 1013.49 1014.68 1015.72 1016.09 1014.54 1012.68 1011.45 1010.53 1010.33 1010.40 1010.44 1011.00 1011.49 1012.31 1012.50 1013.17 1013.50 1013.68 1013.56 1013.95 1014.46 1014.77 1014.98 1015.28 1015.65 1016.17 1016.46 1016.71 1016.88 1016.93 1016.98 1017.05 1017.11 1017.13 1017.09 1017.01 1016.95 1016.91 1016.77 1016.56 1016.37 1016.19 1016.00 1015.86 1015.85 1015.79 1015.63
1012.97 1013.32 1014.50 1015.54 1016.10 1015.72 1014.05 1012.10 1011.09 1010.42 1010.35 1010.50 1011.02 1011.48 1012.03 1012.58 1012.79 1013.05 1013.04 1013.51 1013.82 1014.29 1014.62 1014.89 1015.06 1015.37 1016.05 1016.41 1016.69 1016.90 1017.05 1017.15 1017.24 1017.28 1017.29 1017.27 1017.22 1017.21 1017.16 1017.02 1016.87 1016.72 1016.53 1016.32 1016.19 1016.05 1015.99 1015.86 1015.59
1013.39 1014.26 1015.80 1015.95 1015.89 1014.58 1013.21 1011.57 1010.89 1010.43 1010.31 1010.47 1011.06 1012.00 1012.38 1012.48 1012.61 1012.88 1013.37 1013.67 1014.12 1014.56 1014.74 1014.94 1015.10 1015.64 1016.25 1016.58 1016.84 1017.05 1017.21 1017.37 1017.46 1017.51 1017.51 1017.46 1017.41 1017.42 1017.38 1017.21 1017.05 1016.95 1016.76 1016.60 1016.34 1016.16 1015.93 1015.74 1015.63
1014.14 1015.29 1016.20 1016.34 1015.45 1013.97 1012.61 1011.36 1011.00 1010.63 1010.39 1010.70 1011.06 1012.22 1012.68 1012.82 1012.79 1013.11 1013.52 1013.96 1014.27 1014.85 1015.05 1015.07 1015.36 1015.85 1016.32 1016.67 1016.96 1017.19 1017.39 1017.54 1017.64 1017.69 1017.70 1017.71 1017.70 1017.64 1017.60 1017.37 1017.09 1016.97 1016.85 1016.68 1016.42 1016.19 1015.97 1015.75 1015.60
1014.91 1015.97 1016.73 1016.48 1015.25 1013.72 1012.34 1011.24 1010.94 1010.78 1010.65 1010.97 1011.64 1012.47 1013.14 1013.26 1013.24 1013.66 1013.79 1014.11 1014.32 1014.82 1015.16 1015.26 1015.66 1016.14 1016.48 1016.79 1017.11 1017.38 1017.61 1017.75 1017.79 1017.81 1017.83 1017.85 1017.89 1017.85 1017.74 1017.53 1017.24 1017.00 1016.88 1016.69 1016.51 1016.30 1016.09 1016.01 1015.70
1014.89 1016.27 1016.37 1015.95 1014.93 1013.61 1012.08 1011.25 1010.91 1010.86 1010.77 1011.00 1011.61 1012.74 1013.53 1013.72 1013.76 1013.84 1014.18 1014.47 1014.74 1014.89 1015.16 1015.54 1015.91 1016.37 1016.70 1017.03 1017.34 1017.60 1017.80 1017.94 1017.99 1017.98 1017.99 1018.04 1018.03 1018.03 1017.99 1017.91 1017.55 1017.22 1017.08 1016.91 1016.77 1016.59 1016.23 1015.95 1015.73
1014.88 1015.91 1016.25 1015.48 1014.62 1013.15 1011.89 1011.31 1010.86 1010.93 1010.82 1011.05 1011.49 1012.62 1013.39 1013.31 1013.85 1014.17 1014.63 1014.93 1015.13 1015.33 1015.47 1015.75 1016.18 1016.66 1017.00 1017.33 1017.58 1017.86 1018.05 1018.16 1018.21 1018.18 1018.21 1018.23 1018.31 1018.22 1018.09 1018.06 1017.81 1017.52 1017.45 1017.14 1016.89 1016.56 1016.36 1016.27 1015.99
1014.57 1015.66 1016.05 1014.95 1014.11 1012.83 1012.09 1011.59 1011.13 1010.99 1011.01 1011.40 1012.01 1012.35 1012.73 1012.94 1013.98 1014.58 1015.08 1015.47 1015.62 1015.77 1015.91 1016.10 1016.57 1016.91 1017.13 1017.46 1017.75 1018.03 1018.23 1018.34 1018.37 1018.38 1018.43 1018.56 1018.64 1018.53 1018.45 1018.23 1017.97 1017.89 1017.72 1017.43 1017.04 1016.74 1016.60 1016.38 1016.04
1014.69 1015.29 1014.91 1013.96 1013.22 1012.74 1012.36 1012.13 1011.91 1011.62 1011.45 1011.79 1012.23 1012.68 1012.92 1013.39 1014.09 1014.52 1014.86 1015.27 1015.61 1015.92 1016.23 1016.43 1016.72 1017.05 1017.30 1017.53 1018.00 1018.28 1018.39 1018.56 1018.62 1018.65 1018.68 1018.79 1018.79 1018.72 1018.60 1018.45 1018.29 1018.15 1017.95 1017.61 1017.34 1017.07 1016.82 1016.44 1016.24
1014.65 1014.51 1013.93 1013.41 1012.94 1012.64 1012.44 1012.23 1012.13 1012.04 1011.83 1011.53 1011.86 1012.69 1013.32 1013.75 1014.21 1014.40 1014.61 1014.71 1015.05 1015.63 1016.15 1016.47 1016.73 1017.06 1017.39 1017.67 1018.22 1018.50 1018.63 1018.70 1018.75 1018.79 1018.83 1018.93 1018.99 1018.89 1018.84 1018.68 1018.64 1018.40 1018.17 1017.92 1017.73 1017.43 1017.04 1016.73 1016.29
1014.41 1013.93 1013.58 1013.11 1012.87 1012.77 1012.61 1012.42 1012.39 1012.13 1011.56 1011.42 1011.74 1012.16 1012.96 1013.54 1013.77 1013.90 1014.19 1014.55 1015.03 1015.49 1015.85 1016.23 1016.55 1016.93 1017.30 1017.74 1018.21 1018.49 1018.68 1018.88 1018.95 1018.96 1018.96 1019.06 1019.20 1019.07 1018.97 1018.83 1018.76 1018.63 1018.39 1018.16 1017.97 1017.64 1017.13 1016.54 1016.05
1014.06 1013.71 1013.46 1013.11 1013.06 1013.07 1012.77 1012.70 1012.71 1011.89 1011.40 1011.62 1012.05 1012.52 1012.94 1013.24 1013.41 1013.69 1013.92 1014.40 1014.83 1015.25 1015.61 1016.00 1016.43 1016.85 1017.17 1017.66 1018.15 1018.47 1018.67 1018.84 1018.95 1019.04 1019.04 1019.08 1019.27 1019.21 1018.98 1018.88 1018.83 1018.70 1018.50 1018.30 1018.15 1017.77 1017.27 1016.63 1016.31
1013.61 1013.59 1013.40 1013.33 1013.24 1013.12 1013.13 1012.94 1012.86 1011.23 1011.04 1011.54 1012.12 1012.35 1012.54 1012.76 1012.81 1013.40 1013.65 1013.89 1014.28 1014.72 1015.14 1015.67 1016.20 1016.53 1017.05 1017.58 1017.99 1018.35 1018.66 1018.79 1019.02 1019.20 1019.21 1019.10 1019.24 1019.25 1019.12 1018.90 1018.88 1018.78 1018.54 1018.34 1018.20 1017.80 1017.37 1017.01 1016.56
1013.74 1013.98 1013.77 1013.16 1013.06 1013.11 1013.14 1013.09 1012.40 1010.81 1011.16 1011.36 1011.84 1012.04 1012.23 1012.18 1012.54 1012.39 1012.42 1012.95 1013.35 1013.98 1014.65 1015.29 1015.89 1016.35 1016.92 1017.45 1017.89 1018.32 1018.61 1018.85 1019.05 1019.24 1019.35 1019.23 1019.29 1019.31 1019.24 1019.04 1019.06 1018.88 1018.53 1018.38 1018.08 1017.79 1017.43 1017.32 1016.87
1014.17 1014.32 1014.13 1012.86 1013.04 1012.78 1013.04 1012.37 1011.05 1010.85 1011.26 1011.35 1011.43 1011.70 1011.80 1011.67 1011.60 1011.79 1011.95 1012.35 1012.96 1013.62 1014.23 1014.94 1015.54 1016.21 1016.79 1017.33 1017.71 1018.15 1018.45 1018.84 1019.12 1019.12 1019.30 1019.35 1019.32 1019.41 1019.43 1019.29 1019.25 1018.89 1018.65 1018.49 1018.29 1018.18 1018.07 1017.67 1017.29
1014.66 1014.72 1014.42 1013.57 1012.85 1012.84 1012.93 1012.20 1010.94 1010.89 1011.13 1011.22 1011.07 1011.20 1011.32 1011.21 1011.19 1011.11 1011.24 1011.70 1012.30 1012.87 1013.67 1014.53 1015.21 1015.96 1016.66 1017.24 1017.71 1018.18 1018.54 1018.84 1019.13 1019.32 1019.28 1019.40 1019.38 1019.37 1019.44 1019.43 1019.31 1019.09 1018.93 1018.74 1018.61 1018.49 1018.58 1018.30 1017.74
1014.75 1014.85 1014.33 1013.73 1013.00 1012.98 1013.08 1012.31 1011.23 1010.93 1011.14 1010.98 1010.98 1010.58 1010.59 1010.53 1009.93 1010.08 1010.63 1010.95 1011.64 1012.37 1013.13 1014.01 1014.92 1015.70 1016.50 1017.26 1017.97 1018.53 1018.81 1019.01 1019.26 1019.45 1019.38 1019.49 1019.39 1019.22 1019.30 1019.39 1019.28 1019.23 1019.21 1019.10 1018.83 1018.69 1018.72 1018.66 1018.29
1013.99 1014.17 1013.99 1013.48 1012.80 1012.95 1012.93 1012.37 1011.25 1010.67 1010.94 1010.70 1010.07 1009.65 1009.52 1009.25 1008.75 1009.17 1009.75 1010.38 1011.13 1012.04 1012.82 1013.53 1014.44 1015.46 1016.23 1017.25 1018.16 1018.78 1019.09 1019.33 1019.53 1019.67 1019.47 1019.57 1019.53 1019.26 1019.23 1019.41 1019.42 1019.36 1019.40 1019.35 1019.08 1018.75 1018.96 1018.88 1018.44
1013.80 1013.96 1013.79 1013.39 1013.07 1013.21 1012.93 1012.38 1011.06 1010.74 1009.86 1009.21 1008.94 1008.74 1008.37 1008.33 1008.33 1008.69 1009.26 1009.97 1010.40 1011.14 1012.09 1013.10 1013.95 1014.96 1015.82 1016.49 1017.31 1017.97 1018.67 1019.12 1019.21 1019.51 1019.48 1019.56 1019.62 1019.48 1019.29 1019.32 1019.50 1019.32 1019.50 1019.47 1019.34 1019.06 1018.99 1019.23 1018.91
1013.50 1013.45 1013.61 1013.38 1013.32 1013.27 1013.22 1012.08 1010.67 1009.31 1008.91 1007.92 1007.69 1007.32 1007.40 1007.29 1007.69 1008.18 1008.94 1009.35 1009.94 1010.70 1011.44 1012.34 1013.25 1014.21 1015.16 1015.96 1016.95 1017.83 1018.53 1019.09 1019.35 1019.60 1019.63 1019.70 1019.57 1019.54 1019.50 1019.45 1019.40 1019.42 1019.49 1019.62 1019.56 1019.40 1019.18 1019.29 1019.33
1013.03 1012.89 1013.51 1013.87 1014.33 1014.47 1013.72 1012.51 1010.58 1009.16 1008.34 1007.45 1006.39 1006.51 1006.40 1006.63 1007.16 1007.55 1008.20 1008.85 1009.40 1010.16 1011.11 1012.04 1012.96 1013.87 1014.88 1015.59 1016.45 1017.12 1017.82 1018.66 1018.91 1019.17 1019.44 1019.69 1019.61 1019.59 1019.60 1019.57 1019.57 1019.61 1019.61 1019.71 1019.68 1019.56 1019.31 1019.31 1019.37
1011.79 1012.44 1013.38 1014.16 1014.76 1014.84 1014.23 1014.15 1009.89 1009.01 1008.10 1006.39 1004.97 1005.10 1005.30 1005.76 1006.45 1006.87 1007.28 1007.91 1008.89 1009.84 1010.65 1011.73 1012.78 1013.67 1014.49 1015.22 1015.83 1016.68 1017.55 1018.01 1018.49 1018.95 1019.37 1019.66 1019.78 1019.74 1019.63 1019.69 1019.60 1019.70 1019.67 1019.72 1019.71 1019.61 1019.46 1019.28 1019.39
1011.82 1012.91 1014.09 1014.92 1015.70 1015.57 1013.80 1013.36 1009.43 1008.07 1006.52 1005.18 1004.12 1004.45 1004.79 1005.13 1005.71 1006.36 1006.90 1007.68 1008.53 1009.57 1010.65 1011.54 1012.50 1013.53 1014.34 1014.98 1015.62 1016.24 1017.08 1017.88 1018.55 1019.01 1019.51 1019.73 1019.84 1019.91 1019.81 1019.81 1019.78 1019.86 1019.78 1019.80 1019.71 1019.87 1019.90 1019.54 1019.58
1011.39 1012.50 1014.95 1016.27 1016.76 1014.76 1013.43 1012.95 1007.90 1006.17 1005.02 1004.35 1004.21 1004.24 1004.44 1004.85 1005.56 1006.27 1006.90 1007.62 1008.41 1009.19 1010.12 1011.17 1012.12 1013.19 1013.98 1014.72 1015.35 1015.88 1016.58 1017.35 1018.02 1018.55 1019.18 1019.69 1019.99 1020.03 1019.95 1019.90 1020.03 1020.07 1020.00 1019.89 1019.81 1020.04 1020.14 1020.17 1020.07
1011.00 1011.44 1012.59 1014.49 1015.14 1014.52 1013.78 1011.26 1006.82 1004.74 1003.51 1003.76 1003.94 1004.24 1004.50 1004.95 1005.54 1006.19 1006.68 1007.29 1007.95 1008.65 1009.51 1010.40 1011.48 1012.62 1013.46 1014.31 1015.11 1015.79 1016.39 1017.10 1017.75 1018.22 1018.91 1019.36 1019.66 1019.73 1019.75 1019.77 1019.90 1019.89 1019.89 1019.85 1019.98 1020.23 1020.43 1020.42 1020.42
1010.47 1010.64 1011.21 1012.91 1014.21 1013.96 1012.18 1009.17 1006.29 1004.14 1003.45 1003.33 1003.57 1004.06 1004.33 1004.72 1005.63 1006.27 1006.90 1007.27 1007.82 1008.62 1009.35 1010.11 1011.18 1012.28 1013.20 1014.06 1014.94 1015.76 1016.45 1017.00 1017.55 1018.12 1018.70 1019.16 1019.66 1019.79 1019.80 1019.85 1019.97 1019.96 1019.94 1019.93 1020.03 1020.33 1020.58 1020.84 1021.03
1007.98 1009.21 1011.03 1012.32 1013.32 1013.32 1010.97 1009.22 1006.19 1004.36 1003.13 1002.86 1003.24 1003.70 1004.38 1004.88 1005.78 1006.60 1007.19 1007.75 1008.21 1008.74 1009.51 1010.36 1011.11 1011.89 1012.89 1013.84 1014.58 1015.37 1016.25 1016.82 1017.45 1017.99 1018.59 1019.01 1019.38 1019.65 1019.87 1020.00 1020.01 1020.08 1019.96 1020.11 1020.34 1020.64 1020.80 1020.96 1021.41
1008.09 1008.49 1009.27 1010.05 1011.25 1010.99 1010.33 1007.01 1004.41 1003.19 1002.38 1002.46 1002.72 1003.56 1004.31 1005.01 1005.98 1006.85 1007.51 1008.02 1008.55 1009.10 1009.77 1010.51 1011.19 1011.92 1012.85 1013.54 1014.36 1015.16 1015.97 1016.69 1017.28 1017.77 1018.34 1018.87 1019.26 1019.51 1019.78 1020.01 1020.10 1020.26 1020.11 1020.28 1020.49 1020.63 1020.96 1021.35 1021.75
1007.00 1007.24 1008.16 1009.26 1010.22 1009.89 1008.92 1005.75 1003.19 1002.75 1002.52 1002.61 1002.99 1003.48 1003.93 1004.90 1006.06 1007.04 1007.83 1008.41 1008.99 1009.33 1009.93 1010.67 1011.31 1011.83 1012.53 1013.30 1014.06 1014.77 1015.51 1016.22 1016.96 1017.46 1018.05 1018.59 1019.00 1019.25 1019.55 1019.90 1020.07 1020.32 1020.25 1020.43 1020.46 1020.75 1020.95 1021.42 1021.92
Wind_Speed
6 6 2 6 5 5 4 7 3 2 0 1 1 2 6 4 4 4 3 5 11 11 8 8 14 16 16 13 10 9 9 8 8 8 8 7 7 7 7 7 6 6 6 6 6 7 7 7 8
4 2 5 3 5 2 6 5 4 4 4 7 5 3 6 2 2 5 5 7 12 10 6 8 15 15 15 12 10 9 8 8 8 8 7 7 7 6 6 7 7 6 7 7 7 7 8 8 8
1 4 4 5 4 5 5 5 4 3 6 3 4 5 2 3 2 8 4 13 9 7 7 9 15 16 13 12 10 9 8 8 7 7 7 6 6 6 6 6 6 7 7 8 8 8 9 9 9
3 5 5 5 6 7 5 4 3 5 1 3 4 6 2 1 7 6 11 11 10 7 7 9 15 16 13 12 11 10 9 8 7 7 6 5 5 5 6 6 7 7 7 7 8 8 8 8 8
5 3 3 1 5 6 6 3 2 3 2 3 3 4 2 3 6 12 11 10 12 7 6 7 15 15 14 13 11 10 9 8 7 6 6 6 6 6 7 6 6 7 7 7 7 7 7 8 8
5 4 4 4 5 6 7 6 3 2 1 4 6 5 2 3 10 7 9 9 9 10 6 8 13 12 12 12 12 11 10 8 7 6 6 6 6 7 8 7 8 8 8 9 11 10 11 13 10
8 5 5 3 5 6 4 5 4 3 3 2 9 5 1 4 5 7 7 7 7 7 8 7 9 8 10 10 10 10 9 8 7 6 5 4 5 5 7 8 9 9 11 11 11 12 13 10 10
6 6 3 5 4 6 3 5 1 3 3 4 2 5 5 5 9 7 7 6 6 6 7 7 8 6 7 6 10 9 8 7 6 6 6 5 6 6 6 7 7 8 12 11 11 12 11 12 13
3 5 3 4 5 5 5 4 3 4 2 3 1 4 2 12 11 8 5 4 4 4 6 6 7 6 6 6 6 8 7 6 5 5 5 5 3 4 6 7 7 10 11 11 12 13 14 13 11
5 5 10 5 3 3 4 3 4 4 2 1 1 3 6 13 13 13 11 10 7 7 5 6 7 6 6 4 5 5 4 3 2 3 4 3 3 4 4 5 9 9 10 11 12 13 12 8 4
3 7 6 5 3 2 2 4 2 1 5 6 6 6 7 9 10 12 12 12 14 9 6 6 7 6 6 5 4 2 2 2 2 3 3 3 3 3 3 3 3 4 6 4 5 5 3 5 3
3 6 5 3 3 1 3 3 5 5 6 3 2 8 12 13 14 14 13 11 10 9 10 9 7 7 6 4 4 4 3 2 2 2 3 3 2 3 2 2 3 3 3 4 4 3 5 4 5
4 4 5 3 3 5 4 7 6 9 11 8 3 8 12 12 12 8 8 7 9 11 10 10 9 7 6 6 4 4 4 3 3 3 3 3 2 2 1 2 3 3 3 3 4 4 5 5 6
3 4 4 4 5 3 5 4 5 8 6 8 8 11 12 14 15 7 8 11 12 11 12 10 10 8 7 6 6 4 4 4 3 2 2 3 2 1 1 2 3 3 2 3 3 3 4 4 4
1 2 4 7 4 7 7 7 12 14 4 8 7 7 10 14 10 16 17 15 15 11 11 12 11 9 9 7 6 5 4 4 4 3 2 3 2 1 1 2 3 3 3 4 3 4 5 5 5
3 0 1 4 7 6 9 10 10 3 7 11 9 8 9 12 16 14 12 12 11 10 13 11 10 10 8 7 6 4 4 4 3 3 3 2 2 1 2 2 3 3 3 3 3 4 4 4 5
2 4 6 8 9 3 5 8 8 1 3 7 7 7 7 9 10 12 12 12 12 13 14 13 11 12 9 7 5 5 5 4 4 3 3 2 2 2 2 2 2 4 4 4 3 4 3 3 4
7 5 5 5 4 3 4 14 9 7 5 9 9 9 9 9 14 11 14 14 12 12 13 14 11 11 9 6 5 4 3 3 3 3 3 3 2 2 3 2 3 4 3 4 3 4 3 2 3
5 5 5 4 2 4 8 10 13 11 4 11 14 14 10 12 9 9 12 13 12 12 14 15 15 12 10 6 4 3 3 2 2 2 3 3 2 3 3 2 2 3 3 3 4 2 4 5 3
5 6 5 4 3 4 4 12 14 9 11 12 16 15 16 9 7 7 9 13 16 17 16 15 15 15 11 8 4 4 4 2 3 3 3 3 3 2 3 3 1 2 3 5 5 4 2 2 4
8 7 5 5 2 2 5 8 11 7 8 14 11 17 15 16 13 8 9 14 14 16 17 16 16 17 13 10 7 4 5 3 2 2 2 3 4 3 2 2 2 2 2 3 3 4 4 2 3
14 9 5 3 3 5 1 8 7 7 10 8 14 10 15 13 8 8 10 12 15 15 14 15 15 16 12 13 9 9 6 4 4 4 3 3 4 3 2 2 2 1 1 3 3 3 2 1 2
9 9 11 6 3 2 4 3 9 3 8 16 16 11 12 12 10 12 13 15 14 14 15 14 14 14 14 13 12 8 5 3 3 3 6 4 3 3 3 2 2 1 2 1 3 4 5 3 2
8 8 7 5 4 3 9 8 6 7 11 10 8 5 7 9 10 8 8 12 13 12 13 13 15 13 13 12 11 11 10 7 4 4 4 4 3 3 3 3 2 1 1 1 2 3 5 4 3
6 11 3 3 2 9 1 5 14 9 10 9 8 7 6 6 7 8 11 14 14 17 16 14 16 14 13 13 12 10 9 9 9 7 6 6 3 2 4 3 3 2 2 0 3 4 4 3 3
9 11 8 9 6 4 3 11 10 14 15 5 6 7 7 3 5 8 10 12 15 17 17 17 17 15 15 14 12 8 8 6 5 6 5 4 4 4 5 4 4 3 2 2 3 2 3 3 4
9 13 7 8 2 3 7 9 10 12 15 7 8 6 8 7 5 8 8 9 13 14 16 16 15 12 13 12 10 8 7 7 6 7 5 4 4 3 5 5 5 3 2 3 4 2 4 3 3
16 10 5 2 5 5 5 6 8 5 11 7 6 8 7 4 5 6 7 7 6 9 10 11 13 14 13 11 10 9 8 7 6 6 6 7 6 5 5 5 5 4 3 3 4 1 4 5 3
6 13 4 6 5 7 2 8 10 18 14 10 6 5 7 7 6 6 6 6 7 7 9 10 11 12 12 11 9 9 7 7 7 6 6 6 6 6 6 5 5 5 5 3 3 3 3 5 4
5 8 6 7 10 2 3 9 3 10 5 4 4 7 6 4 6 7 6 7 7 9 9 9 8 10 11 10 10 11 9 8 8 7 7 7 7 6 7 6 5 5 5 5 5 5 4 5 5
Wind_Direction
333 325 58 43 51 60 265 262 262 173 44 304 13 126 139 55 133 194 335 150 130 141 153 150 142 131 120 124 126 118 111 101 92 82 72 63 53 43 38 35 25 19 9 5 358 353 347 346 342
339 331 42 86 90 62 262 257 238 204 145 128 78 68 36 79 98 124 111 160 143 144 137 137 128 126 116 132 132 123 111 103 93 84 75 63 54 44 35 31 24 16 9 3 359 352 346 344 335
94 34 84 95 120 193 229 228 217 157 150 204 85 59 103 156 39 155 163 143 133 120 122 140 129 120 131 136 131 120 112 102 94 85 75 65 54 45 41 36 27 19 14 8 5 358 352 345 335
62 12 38 95 230 255 230 241 223 145 194 96 129 75 39 238 157 156 137 129 124 125 130 154 120 128 143 139 132 124 118 108 98 88 76 68 58 53 49 42 36 28 16 7 1 356 345 333 328
40 56 69 294 256 267 259 245 173 217 180 133 153 181 106 16 106 131 134 137 136 131 143 129 123 133 147 143 136 131 122 115 105 92 83 74 63 61 49 44 40 32 26 14 10 354 348 338 335
52 94 73 242 256 266 286 259 170 231 207 153 81 115 171 116 130 142 138 138 143 144 141 116 125 137 145 144 139 133 126 119 109 101 92 77 63 57 50 43 42 33 23 5 2 0 354 350 341
118 93 201 211 253 286 245 320 167 215 172 214 150 118 297 175 152 131 128 122 132 131 118 124 125 134 129 129 131 133 128 120 106 98 98 84 57 60 42 30 24 24 20 19 17 16 3 355 345
106 101 171 240 228 262 322 333 107 193 214 105 126 182 204 191 147 114 102 118 130 127 122 122 125 122 122 125 126 125 127 124 99 90 92 84 49 46 15 16 359 17 16 12 9 3 0 0 356
136 79 211 239 180 253 351 19 4 296 141 58 54 149 332 127 128 122 113 105 123 132 138 129 128 135 136 137 139 134 131 118 94 78 81 65 45 28 26 9 12 22 14 12 12 12 16 2 347
103 137 211 215 222 248 303 15 314 2 6 171 99 52 93 132 158 161 169 169 171 168 163 149 144 152 148 140 132 131 123 115 93 86 79 66 54 37 44 6 21 18 13 12 15 17 13 2 2
188 193 201 231 230 214 273 312 329 293 251 217 195 163 145 151 172 178 184 181 180 174 163 167 159 158 158 144 141 133 128 127 96 91 89 67 55 38 33 4 14 1 8 5 7 5 355 344 345
177 232 188 216 202 243 258 309 295 205 233 121 52 171 164 175 185 190 188 183 173 174 177 171 167 164 171 142 150 154 148 152 121 100 98 88 60 45 32 14 11 10 346 353 10 348 323 326 356
214 232 200 230 221 255 308 248 244 255 249 225 111 155 188 194 198 199 193 183 176 182 182 180 163 169 166 156 153 156 165 155 143 114 109 103 87 66 34 14 14 358 338 359 6 349 326 357 3
241 220 275 248 231 250 206 259 143 260 251 238 195 202 200 201 204 178 185 190 187 183 183 172 174 170 159 159 161 160 157 156 133 124 139 122 121 127 48 20 16 355 332 350 348 349 330 343 6
198 258 299 242 215 234 165 270 233 241 231 263 242 224 220 215 199 206 204 198 188 187 173 174 171 165 165 162 157 153 156 151 141 142 146 136 127 117 73 20 21 336 326 7 1 11 3 5 349
189 71 207 265 158 240 146 260 264 252 202 251 249 246 232 222 215 211 211 205 189 169 174 168 168 167 157 158 154 149 155 155 148 144 138 151 114 120 50 24 14 326 1 9 9 25 358 355 357
322 213 210 304 193 140 170 259 256 75 149 267 257 249 243 242 236 219 204 196 185 180 169 168 160 164 157 148 141 143 151 153 150 148 137 170 119 97 85 27 345 351 13 11 6 25 9 353 349
197 209 233 233 206 162 201 266 268 267 290 263 267 265 255 245 239 212 203 193 183 178 173 165 162 157 146 133 111 103 126 142 139 164 151 165 148 125 107 42 8 24 17 6 10 35 15 349 344
156 193 211 230 241 166 224 254 258 272 230 263 272 270 251 242 245 206 199 191 174 171 167 170 159 158 146 145 140 129 158 142 110 181 158 169 173 139 117 84 16 30 22 4 2 7 26 14 345
167 182 220 282 264 170 257 264 270 252 253 234 244 255 250 247 227 209 185 179 181 173 174 169 167 161 162 159 138 139 140 164 144 171 164 180 184 167 134 117 60 42 23 9 7 30 12 16 352
211 190 186 197 3 264 329 272 255 265 244 264 248 243 255 236 235 198 176 186 177 178 173 171 168 165 165 151 127 93 88 70 107 159 150 204 186 177 146 132 126 33 51 14 1 6 53 25 15
216 178 178 214 114 236 119 282 289 260 269 234 252 222 236 239 221 200 174 177 179 178 171 169 163 164 161 157 156 160 164 156 190 157 152 173 190 177 162 142 129 60 52 32 353 9 21 54 46
213 158 188 168 174 7 205 305 270 274 273 260 261 233 228 225 199 200 184 177 176 166 167 164 162 164 162 166 167 161 158 138 140 132 150 161 187 184 163 170 139 105 96 12 12 35 20 28 49
137 100 66 60 96 282 192 182 239 214 213 251 256 258 244 230 207 196 174 159 162 156 158 156 160 167 164 165 164 168 170 156 144 146 154 165 174 179 178 159 146 114 120 36 353 60 36 42 53
157 140 48 12 0 232 236 189 252 256 256 231 264 285 318 251 184 169 162 164 159 161 162 160 165 167 167 168 170 170 167 161 172 166 162 157 164 185 188 158 164 166 241 157 38 39 36 13 87
175 167 152 182 199 197 124 230 251 236 262 246 247 256 284 238 172 181 172 171 171 169 167 166 170 166 169 169 174 169 158 163 166 161 156 160 173 175 170 165 172 195 214 123 95 71 51 49 93
195 203 147 102 17 70 208 282 293 265 268 243 230 236 246 248 187 181 170 170 167 168 171 169 167 163 166 166 163 162 157 156 164 159 151 155 164 171 170 167 167 187 190 128 102 52 76 72 56
185 141 149 5 138 229 263 275 235 278 264 270 252 219 229 231 153 152 155 149 155 159 157 155 162 164 164 161 164 166 167 158 153 148 160 163 166 168 166 167 164 176 167 150 124 117 97 100 89
147 187 171 120 160 172 198 254 216 220 219 217 233 197 213 210 172 159 151 140 131 125 144 152 155 151 161 160 155 150 157 158 151 159 162 165 157 167 170 170 163 177 164 176 147 146 120 112 111
145 173 154 162 219 222 152 266 235 238 275 203 199 193 210 180 155 141 140 132 138 145 144 151 153 156 162 159 156 161 158 158 162 163 164 161 169 169 168 170 164 170 173 181 167 163 159 130 134